DAL7326 LIMC-LIRF

Flight info

Callsign DAL7326
Flight time N/A
Altitude 37000
Route ROBAS DCT TINKU DCT XIBIL
Aircraft A20N/M-SDE2E3FGHIRWXY/LB1

Departure

Time N/A
Airport Milan Malpensa International Airport (LIMC)

Arrival

Time 2026-05-01 13:27
Airport Rome–Fiumicino Leonardo da Vinci International Airport (LIRF)
Time Latitude Longitude Altitude Speed Heading
2026-05-01 13:27 41.80434 12.27194 17 ft 0 kts 160°
2026-05-01 13:36 41.80436 12.27193 16 ft 4 kts 160°
2026-05-01 13:36 41.80455 12.27209 16 ft 0 kts 285°
2026-05-01 13:39 41.80456 12.27204 16 ft 3 kts 285°
2026-05-01 13:39 41.80466 12.27155 16 ft 8 kts 285°
2026-05-01 13:40 41.80499 12.27078 16 ft 11 kts 315°
2026-05-01 13:40 41.80581 12.27042 14 ft 14 kts
2026-05-01 13:40 41.80687 12.27056 12 ft 15 kts
2026-05-01 13:40 41.80774 12.27124 11 ft 15 kts 36°
2026-05-01 13:41 41.80866 12.27118 9 ft 12 kts 338°
2026-05-01 13:41 41.80941 12.27078 9 ft 12 kts 339°
2026-05-01 13:41 41.80977 12.26996 10 ft 11 kts 256°
2026-05-01 13:41 41.80936 12.26844 11 ft 44 kts 250°
2026-05-01 13:42 41.80743 12.26140 20 ft 113 kts 249°
2026-05-01 13:42 41.80401 12.24905 20 ft 166 kts 250°
2026-05-01 13:42 41.79967 12.23380 396 ft 180 kts 249°
2026-05-01 13:42 41.79486 12.21727 784 ft 202 kts 249°
2026-05-01 13:43 41.79022 12.19870 1204 ft 220 kts 259°
2026-05-01 13:43 41.78993 12.17745 1607 ft 236 kts 278°
2026-05-01 13:43 41.79115 12.15472 2133 ft 251 kts 274°
2026-05-01 13:43 41.79125 12.13105 2980 ft 256 kts 271°
2026-05-01 13:44 41.79077 12.10703 3912 ft 259 kts 270°
2026-05-01 13:44 41.79018 12.08283 4921 ft 261 kts 271°
2026-05-01 13:44 41.79002 12.05828 5811 ft 266 kts 272°
2026-05-01 13:44 41.79006 12.03328 6716 ft 270 kts 272°
2026-05-01 13:45 41.79010 12.00787 7567 ft 275 kts 273°
2026-05-01 13:45 41.79010 11.98200 8443 ft 279 kts 273°
2026-05-01 13:45 41.79006 11.95588 9439 ft 283 kts 273°
2026-05-01 13:45 41.79000 11.92928 10304 ft 287 kts 273°
2026-05-01 13:46 41.78991 11.90246 11095 ft 290 kts 274°
2026-05-01 13:46 41.78983 11.87448 11522 ft 311 kts 274°
2026-05-01 13:46 41.78978 11.84448 11792 ft 334 kts 274°
2026-05-01 13:46 41.78969 11.81241 12113 ft 352 kts 274°
2026-05-01 13:47 41.78952 11.77936 12863 ft 357 kts 274°
2026-05-01 13:47 41.78933 11.74608 13619 ft 361 kts 274°
2026-05-01 13:47 41.78913 11.71239 14342 ft 366 kts 274°
2026-05-01 13:47 41.78894 11.67800 15017 ft 370 kts 275°
2026-05-01 13:48 41.78875 11.64346 15698 ft 374 kts 275°
2026-05-01 13:48 41.78854 11.60836 16379 ft 378 kts 275°
2026-05-01 13:48 41.79007 11.57327 17018 ft 374 kts 288°
2026-05-01 13:48 41.79858 11.54084 17683 ft 364 kts 306°
2026-05-01 13:49 41.81308 11.51386 18370 ft 356 kts 318°
2026-05-01 13:49 41.82955 11.48893 19000 ft 358 kts 319°
2026-05-01 13:49 41.84619 11.46370 19603 ft 361 kts 319°
2026-05-01 13:49 41.86277 11.43844 20206 ft 363 kts 319°
2026-05-01 13:50 41.87964 11.41269 20799 ft 366 kts 319°
2026-05-01 13:50 41.89644 11.38700 21387 ft 369 kts 319°
2026-05-01 13:50 41.90766 11.36982 21778 ft 370 kts 319°
2026-05-01 13:50 41.92474 11.34367 22358 ft 373 kts 319°
2026-05-01 13:51 41.94193 11.31730 22927 ft 376 kts 320°
2026-05-01 13:51 41.95921 11.29078 23478 ft 379 kts 320°
2026-05-01 13:51 41.98232 11.25530 24150 ft 382 kts 319°
2026-05-01 13:51 41.99416 11.23708 24478 ft 384 kts 319°
2026-05-01 13:52 42.01158 11.21030 24924 ft 386 kts 319°
2026-05-01 13:52 42.02940 11.18288 25377 ft 389 kts 319°
2026-05-01 13:52 42.04716 11.15555 25826 ft 391 kts 318°
2026-05-01 13:52 42.06517 11.12778 26257 ft 393 kts 318°
2026-05-01 13:53 42.08311 11.10010 26694 ft 395 kts 318°
2026-05-01 13:53 42.11945 11.04394 27518 ft 400 kts 317°
2026-05-01 13:53 42.13758 11.01587 27909 ft 402 kts 317°
2026-05-01 13:54 42.15614 10.98711 28291 ft 404 kts 317°
2026-05-01 13:54 42.17472 10.95827 28664 ft 407 kts 317°
2026-05-01 13:54 42.19324 10.92951 29016 ft 409 kts 317°
2026-05-01 13:54 42.21200 10.90034 29366 ft 411 kts 317°
2026-05-01 13:55 42.23077 10.87112 29703 ft 414 kts 317°
2026-05-01 13:55 42.24969 10.84164 30019 ft 416 kts 316°
2026-05-01 13:55 42.26865 10.81214 30341 ft 418 kts 317°
2026-05-01 13:55 42.28890 10.78478 30626 ft 415 kts 323°
2026-05-01 13:56 42.31173 10.76009 30915 ft 413 kts 329°
2026-05-01 13:56 42.33510 10.73943 31194 ft 414 kts 331°
2026-05-01 13:56 42.35942 10.71860 31497 ft 415 kts 330°
2026-05-01 13:56 42.38366 10.69763 31863 ft 414 kts 330°
2026-05-01 13:57 42.40801 10.67653 32253 ft 413 kts 330°
2026-05-01 13:57 42.43224 10.65555 32614 ft 413 kts 330°
2026-05-01 13:57 42.45639 10.63464 32959 ft 412 kts 329°
2026-05-01 13:57 42.48060 10.61367 33301 ft 412 kts 329°
2026-05-01 13:58 42.50463 10.59285 33646 ft 411 kts 329°
2026-05-01 13:58 42.52875 10.57194 33972 ft 411 kts 329°
2026-05-01 13:58 42.55286 10.55102 34295 ft 410 kts 329°
2026-05-01 13:58 42.57659 10.53039 34554 ft 410 kts 329°
2026-05-01 13:59 42.60060 10.50950 34825 ft 409 kts 329°
2026-05-01 13:59 42.62458 10.48862 35092 ft 408 kts 329°
2026-05-01 13:59 42.64874 10.46756 35359 ft 407 kts 329°
2026-05-01 13:59 42.67261 10.44674 35611 ft 407 kts 329°
2026-05-01 14:00 42.69579 10.42649 35847 ft 406 kts 329°
2026-05-01 14:00 42.71953 10.40573 36094 ft 405 kts 329°
2026-05-01 14:00 42.74239 10.38323 36302 ft 406 kts 323°
2026-05-01 14:00 42.76427 10.35880 36540 ft 406 kts 323°
2026-05-01 14:01 42.78620 10.33458 36768 ft 405 kts 323°
2026-05-01 14:01 42.80813 10.31045 36994 ft 404 kts 324°
2026-05-01 14:01 42.82969 10.28673 37200 ft 404 kts 324°
2026-05-01 14:01 42.85187 10.26228 37393 ft 403 kts 324°
2026-05-01 14:02 42.87362 10.23825 37563 ft 403 kts 324°
2026-05-01 14:02 42.89543 10.21411 37759 ft 402 kts 323°
2026-05-01 14:02 42.91687 10.19035 37954 ft 402 kts 323°
2026-05-01 14:02 42.93859 10.16626 38128 ft 401 kts 323°
2026-05-01 14:03 42.96029 10.14217 38278 ft 401 kts 323°
2026-05-01 14:03 42.98199 10.11806 38276 ft 401 kts 323°
2026-05-01 14:03 43.02518 10.07000 38274 ft 401 kts 323°
2026-05-01 14:04 43.06850 10.02171 38277 ft 402 kts 323°
2026-05-01 14:04 43.11186 9.97329 38285 ft 402 kts 323°
2026-05-01 14:05 43.15491 9.92512 38283 ft 403 kts 323°
2026-05-01 14:05 43.19840 9.87637 38286 ft 404 kts 323°
2026-05-01 14:06 43.24194 9.82747 38286 ft 405 kts 323°
2026-05-01 14:06 43.28556 9.77838 38288 ft 405 kts 323°
2026-05-01 14:07 43.32899 9.72942 38301 ft 406 kts 323°
2026-05-01 14:08 43.39430 9.65561 38292 ft 407 kts 323°
2026-05-01 14:08 43.43812 9.60596 38300 ft 407 kts 323°
2026-05-01 14:09 43.48185 9.55633 38288 ft 408 kts 323°
2026-05-01 14:09 43.52567 9.50650 38299 ft 408 kts 322°
2026-05-01 14:10 43.56946 9.45659 38293 ft 409 kts 322°
2026-05-01 14:10 43.61335 9.40648 38296 ft 409 kts 322°
2026-05-01 14:11 43.65358 9.36047 38296 ft 410 kts 322°
2026-05-01 14:11 43.69688 9.31085 37809 ft 411 kts 322°
2026-05-01 14:11 43.71886 9.28563 37535 ft 411 kts 322°
2026-05-01 14:12 43.74094 9.26027 37259 ft 413 kts 322°
2026-05-01 14:12 43.76303 9.23487 36999 ft 414 kts 322°
2026-05-01 14:12 43.78516 9.20938 36746 ft 415 kts 322°
2026-05-01 14:12 43.80736 9.18381 36477 ft 417 kts 322°
2026-05-01 14:13 43.82918 9.15865 36221 ft 418 kts 322°
2026-05-01 14:13 43.84407 9.14146 35925 ft 419 kts 322°
2026-05-01 14:13 43.87436 9.10648 34830 ft 427 kts 321°
2026-05-01 14:13 43.89737 9.07986 34000 ft 431 kts 321°
2026-05-01 14:14 43.92042 9.05315 33236 ft 430 kts 321°
2026-05-01 14:14 43.94350 9.02638 32354 ft 433 kts 321°
2026-05-01 14:14 43.96663 8.99951 31615 ft 432 kts 322°
2026-05-01 14:14 43.98976 8.97264 30736 ft 436 kts 322°
2026-05-01 14:15 44.01312 8.94547 29954 ft 435 kts 322°
2026-05-01 14:15 44.03609 8.91872 29437 ft 428 kts 322°
2026-05-01 14:15 44.05875 8.89230 28853 ft 422 kts 322°
2026-05-01 14:15 44.08105 8.86627 28269 ft 418 kts 322°
2026-05-01 14:16 44.10330 8.84027 27689 ft 413 kts 322°
2026-05-01 14:16 44.12525 8.81461 27113 ft 409 kts 322°
2026-05-01 14:16 44.14697 8.78919 26542 ft 406 kts 322°
2026-05-01 14:16 44.16854 8.76392 25975 ft 403 kts 322°
2026-05-01 14:17 44.18986 8.73892 25406 ft 400 kts 322°
2026-05-01 14:17 44.21108 8.71401 24791 ft 399 kts 322°
2026-05-01 14:17 44.23201 8.68941 24507 ft 385 kts 322°
2026-05-01 14:17 44.25213 8.66571 24381 ft 371 kts 322°
2026-05-01 14:18 44.27146 8.64293 24259 ft 358 kts 322°
2026-05-01 14:18 44.29007 8.62099 24149 ft 345 kts 322°
2026-05-01 14:18 44.30831 8.59949 23892 ft 338 kts 322°
2026-05-01 14:18 44.32023 8.58544 23541 ft 337 kts 322°
2026-05-01 14:19 44.34367 8.55782 22888 ft 335 kts 322°
2026-05-01 14:19 44.36123 8.53709 22442 ft 333 kts 322°
2026-05-01 14:19 44.37890 8.51621 21987 ft 332 kts 322°
2026-05-01 14:19 44.39614 8.49465 21528 ft 332 kts 317°
2026-05-01 14:20 44.41142 8.47059 21097 ft 331 kts 314°
2026-05-01 14:20 44.44163 8.42235 20285 ft 328 kts 315°
2026-05-01 14:20 44.45677 8.39836 19868 ft 327 kts 314°
2026-05-01 14:21 44.47179 8.37450 19460 ft 326 kts 314°
2026-05-01 14:21 44.48666 8.35081 19069 ft 325 kts 314°
2026-05-01 14:21 44.50134 8.32737 18668 ft 324 kts 314°
2026-05-01 14:22 44.53024 8.28109 17884 ft 320 kts 314°
2026-05-01 14:22 44.54482 8.25773 17265 ft 317 kts 314°
2026-05-01 14:22 44.55935 8.23447 16658 ft 315 kts 314°
2026-05-01 14:22 44.57373 8.21146 16094 ft 312 kts 314°
2026-05-01 14:23 44.58793 8.18869 15514 ft 310 kts 313°
2026-05-01 14:23 44.60202 8.16598 14987 ft 307 kts 313°
2026-05-01 14:23 44.61600 8.14338 14440 ft 305 kts 313°
2026-05-01 14:23 44.62985 8.12096 13916 ft 303 kts 313°
2026-05-01 14:24 44.64360 8.09867 13366 ft 300 kts 313°
2026-05-01 14:24 44.65723 8.07663 12807 ft 297 kts 313°
2026-05-01 14:24 44.67061 8.05503 12609 ft 293 kts 313°
2026-05-01 14:24 44.68412 8.03320 12483 ft 296 kts 313°
2026-05-01 14:25 44.69748 8.01161 12342 ft 285 kts 313°
2026-05-01 14:25 44.71036 7.99079 11923 ft 281 kts 313°
2026-05-01 14:25 44.72311 7.97015 11405 ft 279 kts 313°
2026-05-01 14:25 44.73583 7.94958 10942 ft 277 kts 313°
2026-05-01 14:26 44.74841 7.92920 10471 ft 275 kts 310°
2026-05-01 14:26 44.75720 7.87879 9464 ft 271 kts 255°
2026-05-01 14:26 44.75088 7.85401 9094 ft 270 kts 248°
2026-05-01 14:27 44.74602 7.83784 8825 ft 270 kts 247°
2026-05-01 14:27 44.73861 7.81360 8433 ft 271 kts 247°
2026-05-01 14:27 44.73113 7.78864 8039 ft 274 kts 248°
2026-05-01 14:28 44.73019 7.73785 7370 ft 260 kts 300°
2026-05-01 14:28 44.74089 7.71866 7213 ft 242 kts 316°
2026-05-01 14:28 44.75282 7.70262 6971 ft 232 kts 319°
2026-05-01 14:28 44.76461 7.68730 6612 ft 230 kts 318°
2026-05-01 14:29 44.77612 7.67176 6213 ft 228 kts 316°
2026-05-01 14:29 44.78722 7.65625 5806 ft 226 kts 315°
2026-05-01 14:30 44.82555 7.62557 4586 ft 221 kts
2026-05-01 14:30 44.84084 7.62672 4224 ft 218 kts
2026-05-01 14:30 44.85598 7.62767 4025 ft 213 kts
2026-05-01 14:31 44.88461 7.62950 4007 ft 205 kts
2026-05-01 14:31 44.89859 7.63039 3987 ft 204 kts
2026-05-01 14:31 44.91243 7.63126 3984 ft 190 kts
2026-05-01 14:31 44.92557 7.63208 3995 ft 187 kts
2026-05-01 14:32 44.93842 7.63287 3989 ft 184 kts
2026-05-01 14:32 44.95124 7.63371 3999 ft 184 kts
2026-05-01 14:32 44.96380 7.63453 3998 ft 178 kts
2026-05-01 14:32 44.97624 7.63535 3993 ft 179 kts
2026-05-01 14:33 44.98873 7.63614 3996 ft 179 kts
2026-05-01 14:33 45.00114 7.63692 3998 ft 179 kts
2026-05-01 14:33 45.01344 7.63770 3999 ft 179 kts
2026-05-01 14:33 45.02603 7.63850 3997 ft 179 kts
2026-05-01 14:34 45.03851 7.63929 3948 ft 180 kts
2026-05-01 14:34 45.05098 7.64009 3715 ft 179 kts
2026-05-01 14:34 45.06337 7.64089 3486 ft 178 kts
2026-05-01 14:34 45.07576 7.64167 3243 ft 178 kts
2026-05-01 14:35 45.08808 7.64244 2998 ft 177 kts
2026-05-01 14:35 45.09997 7.64321 2769 ft 161 kts
2026-05-01 14:35 45.11061 7.64388 2559 ft 146 kts
2026-05-01 14:35 45.12048 7.64452 2370 ft 141 kts
2026-05-01 14:36 45.13013 7.64515 2175 ft 140 kts
2026-05-01 14:36 45.13977 7.64574 1970 ft 138 kts
2026-05-01 14:36 45.14930 7.64623 1731 ft 137 kts
2026-05-01 14:36 45.15887 7.64693 1591 ft 138 kts
2026-05-01 14:37 45.16874 7.64758 1401 ft 144 kts
2026-05-01 14:37 45.17895 7.64822 1182 ft 150 kts
2026-05-01 14:37 45.18940 7.64890 994 ft 150 kts
2026-05-01 14:37 45.19891 7.64955 961 ft 115 kts
2026-05-01 14:38 45.20520 7.64996 986 ft 67 kts
2026-05-01 14:38 45.20807 7.64987 991 ft 28 kts 337°
2026-05-01 14:38 45.20861 7.64794 993 ft 17 kts 233°
2026-05-01 14:39 45.20714 7.64733 990 ft 5 kts 184°
2026-05-01 14:39 45.20670 7.64731 989 ft 7 kts 181°
2026-05-01 14:40 45.20655 7.64731 989 ft 1 kts 180°
2026-05-01 14:41 45.20631 7.64726 988 ft 6 kts 187°
2026-05-01 14:41 45.20579 7.64719 989 ft 10 kts 182°
2026-05-01 14:41 45.20499 7.64705 991 ft 11 kts 220°
2026-05-01 14:41 45.20495 7.64588 990 ft 13 kts 272°
2026-05-01 14:42 45.20486 7.64542 986 ft 3 kts 220°
2026-05-01 14:42 45.20466 7.64552 987 ft 4 kts 130°
2026-05-01 14:42 45.20463 7.64568 989 ft 2 kts 97°
2026-05-01 14:42 45.20463 7.64574 989 ft 0 kts 91°
2026-05-01 14:54 45.20463 7.64577 984 ft 2 kts 91°
2026-05-01 14:54 45.20462 7.64632 984 ft 8 kts 91°
2026-05-01 14:54 45.20480 7.64706 989 ft 8 kts 32°
2026-05-01 14:55 45.20537 7.64725 986 ft 9 kts
2026-05-01 14:55 45.20601 7.64732 993 ft 9 kts
2026-05-01 14:55 45.20669 7.64734 991 ft 10 kts
2026-05-01 14:55 45.20746 7.64736 990 ft 12 kts
2026-05-01 14:56 45.20839 7.64738 989 ft 15 kts
2026-05-01 14:56 45.20948 7.64744 990 ft 16 kts
2026-05-01 14:56 45.21064 7.64755 991 ft 17 kts
2026-05-01 14:56 45.21184 7.64764 993 ft 18 kts
2026-05-01 14:57 45.21295 7.64773 996 ft 14 kts
2026-05-01 14:57 45.21459 7.64787 1003 ft 10 kts
2026-05-01 14:57 45.21518 7.64810 1006 ft 8 kts 28°
2026-05-01 14:58 45.21548 7.64864 1008 ft 7 kts 68°
2026-05-01 14:58 45.21548 7.64941 1008 ft 10 kts 105°
2026-05-01 14:58 45.21515 7.65041 1005 ft 10 kts 139°
2026-05-01 14:58 45.21474 7.65053 1004 ft 16 kts 177°
2026-05-01 14:59 45.21100 7.65029 992 ft 89 kts 182°
2026-05-01 14:59 45.20275 7.64980 980 ft 145 kts 183°
2026-05-01 14:59 45.19127 7.64909 1088 ft 176 kts 182°
2026-05-01 14:59 45.17918 7.64827 1677 ft 177 kts 182°
2026-05-01 15:00 45.15237 7.64641 2709 ft 205 kts 182°
2026-05-01 15:00 45.13782 7.64533 3250 ft 213 kts 182°
2026-05-01 15:00 45.12262 7.64418 3758 ft 227 kts 183°
2026-05-01 15:01 45.10612 7.64287 4324 ft 246 kts 183°
2026-05-01 15:01 45.08847 7.64145 4963 ft 262 kts 183°
2026-05-01 15:01 45.07053 7.63998 5574 ft 257 kts 183°
2026-05-01 15:01 45.05232 7.63845 6229 ft 262 kts 183°
2026-05-01 15:02 45.03405 7.63686 6857 ft 263 kts 182°
2026-05-01 15:02 45.02788 7.63633 7061 ft 266 kts 182°
2026-05-01 15:02 44.99666 7.63397 8082 ft 270 kts 178°
2026-05-01 15:02 44.97849 7.63982 8376 ft 273 kts 150°
2026-05-01 15:03 44.96418 7.65701 8668 ft 271 kts 123°
2026-05-01 15:03 44.95733 7.68154 8966 ft 270 kts 95°
2026-05-01 15:03 44.95897 7.70777 9306 ft 270 kts 76°
2026-05-01 15:03 44.96343 7.73370 9647 ft 272 kts 77°
2026-05-01 15:04 44.96635 7.76007 9965 ft 273 kts 84°
2026-05-01 15:04 44.96725 7.78706 10292 ft 276 kts 89°
2026-05-01 15:04 44.96677 7.81425 10632 ft 283 kts 92°
2026-05-01 15:04 44.96548 7.84299 11021 ft 304 kts 94°
2026-05-01 15:05 44.96138 7.87350 11298 ft 328 kts 108°
2026-05-01 15:05 44.95073 7.90272 11778 ft 342 kts 125°
2026-05-01 15:05 44.93518 7.92833 12585 ft 345 kts 131°
2026-05-01 15:05 44.91918 7.95386 13368 ft 349 kts 130°
2026-05-01 15:06 44.90306 7.97980 14142 ft 353 kts 130°
2026-05-01 15:06 44.88677 8.00604 14831 ft 357 kts 130°
2026-05-01 15:06 44.87036 8.03247 15534 ft 360 kts 130°
2026-05-01 15:06 44.85376 8.05920 16219 ft 364 kts 130°
2026-05-01 15:07 44.83654 8.08569 16898 ft 368 kts 134°
2026-05-01 15:07 44.81686 8.10923 17557 ft 374 kts 142°
2026-05-01 15:07 44.79500 8.12974 18210 ft 379 kts 145°
2026-05-01 15:07 44.77311 8.14981 18814 ft 382 kts 145°
2026-05-01 15:08 44.75031 8.17083 19203 ft 393 kts 145°
2026-05-01 15:08 44.72705 8.19236 19329 ft 409 kts 145°
2026-05-01 15:08 44.70304 8.21456 19347 ft 428 kts 145°
2026-05-01 15:08 44.67766 8.23802 19343 ft 446 kts 145°
2026-05-01 15:09 44.65153 8.26208 19329 ft 452 kts 145°
2026-05-01 15:09 44.62582 8.28570 19341 ft 433 kts 145°
2026-05-01 15:09 44.60037 8.30907 19335 ft 445 kts 145°
2026-05-01 15:09 44.57413 8.33319 19326 ft 452 kts 145°
2026-05-01 15:10 44.54805 8.35713 19327 ft 452 kts 145°
2026-05-01 15:10 44.49523 8.40551 19317 ft 453 kts 144°
2026-05-01 15:10 44.46880 8.42968 19305 ft 453 kts 144°
2026-05-01 15:11 44.44242 8.45378 19307 ft 453 kts 144°
2026-05-01 15:11 44.39016 8.50274 19301 ft 451 kts 140°
2026-05-01 15:11 44.36602 8.53081 19291 ft 451 kts 137°
2026-05-01 15:12 44.34246 8.55882 19288 ft 451 kts 137°
2026-05-01 15:12 44.29461 8.61543 19283 ft 451 kts 137°
2026-05-01 15:12 44.27033 8.64404 19280 ft 451 kts 137°
2026-05-01 15:13 44.19856 8.72837 19284 ft 452 kts 137°
2026-05-01 15:14 44.15042 8.78476 19283 ft 452 kts 137°
2026-05-01 15:14 44.12640 8.81288 19286 ft 452 kts 137°
2026-05-01 15:14 44.07818 8.86923 19289 ft 452 kts 137°
2026-05-01 15:15 44.02996 8.92544 19291 ft 453 kts 137°
2026-05-01 15:15 43.98165 8.98164 19288 ft 453 kts 137°
2026-05-01 15:16 43.94138 9.02838 19290 ft 453 kts 137°
2026-05-01 15:16 43.89299 9.08444 19291 ft 453 kts 137°
2026-05-01 15:17 43.84457 9.14040 19290 ft 453 kts 137°
2026-05-01 15:18 43.77199 9.22407 19296 ft 454 kts 137°
2026-05-01 15:18 43.74771 9.25200 19297 ft 454 kts 137°
2026-05-01 15:19 43.67485 9.33562 19290 ft 454 kts 137°
2026-05-01 15:19 43.62645 9.39102 19292 ft 454 kts 137°
2026-05-01 15:19 43.60235 9.41856 19290 ft 454 kts 137°
2026-05-01 15:20 43.55359 9.47418 19287 ft 454 kts 137°
2026-05-01 15:20 43.52926 9.50189 19289 ft 454 kts 137°
2026-05-01 15:20 43.50491 9.52958 19289 ft 454 kts 137°
2026-05-01 15:21 43.48052 9.55731 19290 ft 454 kts 137°
2026-05-01 15:21 43.45618 9.58494 19291 ft 453 kts 137°
2026-05-01 15:21 43.43186 9.61253 19290 ft 454 kts 137°
2026-05-01 15:21 43.40756 9.64005 19289 ft 453 kts 137°
2026-05-01 15:22 43.35871 9.69530 19288 ft 454 kts 137°
2026-05-01 15:22 43.33486 9.72223 19287 ft 454 kts 137°
2026-05-01 15:22 43.31074 9.74945 19286 ft 454 kts 137°
2026-05-01 15:23 43.28596 9.77737 19288 ft 454 kts 137°
2026-05-01 15:23 43.26183 9.80452 19285 ft 455 kts 137°
2026-05-01 15:23 43.23744 9.83195 19280 ft 455 kts 137°
2026-05-01 15:23 43.21269 9.85975 19281 ft 455 kts 137°
2026-05-01 15:24 43.18808 9.88738 19278 ft 455 kts 137°
2026-05-01 15:24 43.16356 9.91488 19282 ft 456 kts 137°
2026-05-01 15:24 43.13900 9.94239 19282 ft 456 kts 137°
2026-05-01 15:24 43.11443 9.96988 19279 ft 456 kts 137°
2026-05-01 15:25 43.09017 9.99701 19275 ft 456 kts 137°
2026-05-01 15:25 43.06609 10.02390 19273 ft 457 kts 137°
2026-05-01 15:25 43.04091 10.05200 19273 ft 457 kts 137°
2026-05-01 15:25 43.01621 10.07953 19271 ft 458 kts 137°
2026-05-01 15:26 42.99185 10.10664 19274 ft 458 kts 137°
2026-05-01 15:26 42.96681 10.13449 19271 ft 458 kts 136°
2026-05-01 15:26 42.94216 10.16187 19266 ft 458 kts 136°
2026-05-01 15:26 42.91744 10.18929 19267 ft 458 kts 136°
2026-05-01 15:27 42.89265 10.21678 19265 ft 458 kts 136°
2026-05-01 15:27 42.86792 10.24417 19263 ft 458 kts 136°
2026-05-01 15:27 42.84319 10.27153 19260 ft 458 kts 136°
2026-05-01 15:28 42.79362 10.32626 19260 ft 458 kts 136°
2026-05-01 15:28 42.76951 10.35369 19259 ft 455 kts 131°
2026-05-01 15:28 42.74899 10.38664 19254 ft 447 kts 118°
2026-05-01 15:29 42.72701 10.46279 19254 ft 430 kts 93°
2026-05-01 15:29 42.72497 10.50319 19253 ft 426 kts 87°
2026-05-01 15:29 42.72302 10.58360 19251 ft 425 kts 87°
2026-05-01 15:30 42.72728 10.66313 19244 ft 418 kts 76°
2026-05-01 15:31 42.75929 10.81397 19243 ft 414 kts 70°
2026-05-01 15:31 42.77579 10.88805 19239 ft 414 kts 70°
2026-05-01 15:32 42.78434 10.96618 19240 ft 424 kts 89°
2026-05-01 15:32 42.76827 11.04415 19239 ft 440 kts 113°
2026-05-01 15:33 42.71850 11.15028 19239 ft 443 kts 117°
2026-05-01 15:34 42.66836 11.25606 19259 ft 443 kts 117°